Terminal Aerodrome Forecast
Issued by NWS Houston/Galveston, TX

Home | Current Version | Previous Version | Text Only | Print | Product List | Glossary On
Versions: 1 2 3 4 5 6 7 8 9 10 11 12 13 14 15 16 17 18 19 20 21 22 23 24 25 26 27 28 29 30 31 32 33 34 35 36 37 38 39 40 41 42 43 44 45 46 47 48 49 50
000
FTUS44 KHGX 282339
TAFCLL
TAF
KCLL 282339Z 2900/2924 12010KT P6SM SKC
     FM290300 15009KT P6SM FEW015 BKN250
     FM291000 16005KT P6SM SCT012 BKN025 PROB30 2910/2915 5SM -TSRA
      BKN025CB
     FM291500 15008KT P6SM SCT030 BKN250=

USA.gov is the U.S. government's official web portal to all federal, state and local government web resources and services.